Location: Peebles
(55.6412°N, 3.1714°W)
Time: 11:49:45
(UTC+01:00)

OBJECT A - Pass Details

Date: 05 July 2022
Orbit: 611 x 632 km, 97.9° (Epoch: 17 August)

Event Time Altitude Azimuth Distance (km) Brightness Sun altitude
Exits shadow 00:42:58 - 220° (SW) 2,432 ? -11.2°
Reaches altitude 10° 00:44:31 10° 234° (SW) 1,993 ? -11.2°
Maximum altitude 00:47:14 16° 273° (W) 1,627 ? -11.3°
Drops below altitude 10° 00:49:56 10° 312° (NW) 1,995 ? -11.3°
Sets 00:52:55 0° 334° (NNW) 2,903 ? -11.4°
